Regional Weather Roundup
Issued by NWS Raleigh/Durham, NC

Home | Current Version | Previous Version | Text Only | Print | Product List | Glossary On
Versions: 1 2 3 4 5 6 7 8 9 10 11 12 13 14 15 16 17 18 19 20 21 22 23 24 25 26 27
000
ASUS42 KRAH 230410
RWRRAH
NORTH CAROLINA WEATHER ROUNDUP
NATIONAL WEATHER SERVICE RALEIGH NC
1200 AM EDT THU MAR 23 2017

NOTE: "FAIR" INDICATES FEW OR NO CLOUDS BELOW 12,000 FEET WITH NO
SIGNIFICANT WEATHER AND/OR OBSTRUCTIONS TO VISIBILITY.

NCZ001-053-055-056-065-067-230500-
WESTERN NORTH CAROLINA

CITY           SKY/WX    TMP DP  RH WIND       PRES   REMARKS
ASHEVILLE      CLEAR     40  25  55 CALM      30.35R
JEFFERSON      CLEAR     35  14  41 E3        30.36R
HICKORY        CLEAR     46  18  32 E8        30.37R
RUTHERFORDTON  CLEAR     49  19  29 NE5       30.37R
MOUNT AIRY     CLEAR     44  16  32 NE3       30.41R
BOONE          CLEAR     30  19  63 CALM      30.37R
$$

NCZ021-022-025-041-071-084-088-230500-
CENTRAL NORTH CAROLINA

CITY           SKY/WX    TMP DP  RH WIND       PRES   REMARKS
CHARLOTTE      CLEAR     45  20  36 N8        30.38R
GREENSBORO     CLEAR     44  13  28 E10       30.40R
WINSTON-SALEM  CLEAR     44  12  27 E5        30.41R
RALEIGH-DURHAM PTCLDY    44  13  28 E8        30.43R
FORT BRAGG     CLEAR     46  17  31 NE6       30.40R
FAYETTEVILLE   CLEAR     46  20  35 NE6       30.41R
BURLINGTON     CLEAR     43  13  29 NE5       30.41R
LAURINBURG     CLEAR     48  22  35 E12       30.40R
$$

NCZ011-015-027-028-043-044-047-080-103-230500-
NORTHEASTERN NORTH CAROLINA

CITY           SKY/WX    TMP DP  RH WIND       PRES   REMARKS
ROCKY MT-WILSO PTCLDY    35  25  66 CALM      30.44R
GREENVILLE     PTCLDY    34  27  75 CALM      30.44R
WASHINGTON     CLEAR     38  29  70 CALM      30.45R
ELIZABETH CITY CLEAR     40  23  50 N9        30.45R WCI  34
MANTEO         CLEAR     41  29  63 NE9       30.44R
CAPE HATTERAS  CLEAR     43  25  49 NE7       30.43R
$$

NCZ078-087-090-091-093-098-101-230500-
SOUTHEASTERN NORTH CAROLINA

CITY           SKY/WX    TMP DP  RH WIND       PRES   REMARKS
LUMBERTON      CLEAR     48  23  37 E8        30.40R
GOLDSBORO      CLEAR     43  19  38 NE7       30.42R
KINSTON        CLEAR     42  27  56 CALM      30.44R
KENANSVILLE    CLEAR     43  28  56 E5        30.43R
NEW BERN       CLEAR     41  30  65 E6        30.45R
CHERRY POINT   NOT AVBL
BEAUFORT       CLEAR     44  28  53 NE8       30.42R
JACKSONVILLE   CLEAR     43  32  65 NE9       30.42R
WILMINGTON     CLEAR     42  31  64 NE9       30.41R
$$





USA.gov is the U.S. government's official web portal to all federal, state and local government web resources and services.